Time,TemperatureF,DewpointF,PressureIn,WindDirection,WindDirectionDegrees,WindSpeedMPH,WindSpeedGustMPH,Humidity,HourlyPrecipIn,Conditions,Clouds,dailyrainin,SoftwareType,DateUTC
2013-03-21 00:00:00,14.6,10.1,29.94,West,278,0.0,3.0,82,0.00,,,0.00,Wunderground v.1.15,2013-03-21 04:00:00,
2013-03-21 00:05:00,14.4,9.9,29.94,West,278,0.0,3.0,82,0.00,,,0.00,Wunderground v.1.15,2013-03-21 04:05:00,
2013-03-21 00:15:00,14.4,10.2,29.93,West,278,0.0,2.0,83,0.00,,,0.00,Wunderground v.1.15,2013-03-21 04:15:00,
2013-03-21 00:20:00,14.6,10.4,29.93,West,278,0.0,2.0,83,0.00,,,0.00,Wunderground v.1.15,2013-03-21 04:20:00,
2013-03-21 00:25:00,14.6,10.4,29.93,West,278,0.0,2.0,83,0.00,,,0.00,Wunderground v.1.15,2013-03-21 04:25:00,
2013-03-21 00:30:00,14.6,10.4,29.93,West,278,0.0,2.0,83,0.00,,,0.00,Wunderground v.1.15,2013-03-21 04:30:00,
2013-03-21 00:35:00,14.6,10.4,29.93,West,278,0.0,2.0,83,0.00,,,0.00,Wunderground v.1.15,2013-03-21 04:35:00,
2013-03-21 00:45:00,14.6,10.4,29.92,West,278,0.0,2.0,83,0.00,,,0.00,Wunderground v.1.15,2013-03-21 04:45:00,
2013-03-21 00:50:00,14.6,10.4,29.92,West,278,0.0,2.0,83,0.00,,,0.00,Wunderground v.1.15,2013-03-21 04:50:00,
2013-03-21 00:55:00,14.6,10.4,29.92,West,278,0.0,2.0,83,0.00,,,0.00,Wunderground v.1.15,2013-03-21 04:55:00,
2013-03-21 01:00:00,14.6,10.4,29.92,West,278,0.0,2.0,83,0.00,,,0.00,Wunderground v.1.15,2013-03-21 05:00:00,
2013-03-21 01:05:00,14.4,10.4,29.92,West,278,0.0,2.0,84,0.00,,,0.00,Wunderground v.1.15,2013-03-21 05:05:00,
2013-03-21 01:15:00,14.3,10.1,29.92,West,278,0.0,0.0,83,0.00,,,0.00,Wunderground v.1.15,2013-03-21 05:15:00,
2013-03-21 01:25:00,14.3,10.4,29.92,West,278,0.0,0.0,84,0.00,,,0.00,Wunderground v.1.15,2013-03-21 05:25:00,
2013-03-21 01:30:00,14.3,10.4,29.91,West,278,0.0,0.0,84,0.00,,,0.00,Wunderground v.1.15,2013-03-21 05:30:00,
2013-03-21 01:35:00,14.0,9.8,29.91,West,278,0.0,0.0,83,0.00,,,0.00,Wunderground v.1.15,2013-03-21 05:35:00,
2013-03-21 01:45:00,13.6,9.7,29.91,West,278,0.0,0.0,84,0.00,,,0.00,Wunderground v.1.15,2013-03-21 05:45:00,
2013-03-21 01:50:00,13.6,9.7,29.91,West,278,0.0,0.0,84,0.00,,,0.00,Wunderground v.1.15,2013-03-21 05:50:00,
2013-03-21 01:55:00,13.6,9.7,29.91,West,278,0.0,0.0,84,0.00,,,0.00,Wunderground v.1.15,2013-03-21 05:55:00,
2013-03-21 02:05:00,13.6,9.7,29.91,West,278,0.0,0.0,84,0.00,,,0.00,Wunderground v.1.15,2013-03-21 06:05:00,
2013-03-21 02:15:00,13.3,9.4,29.91,West,278,0.0,0.0,84,0.00,,,0.00,Wunderground v.1.15,2013-03-21 06:15:00,
2013-03-21 02:25:00,12.8,8.9,29.91,West,278,0.0,0.0,84,0.00,,,0.00,Wunderground v.1.15,2013-03-21 06:25:00,
2013-03-21 02:35:00,13.5,9.8,29.90,West,278,1.0,1.0,85,0.00,,,0.00,Wunderground v.1.15,2013-03-21 06:35:00,
2013-03-21 02:40:00,13.6,9.9,29.90,West,278,1.0,1.0,85,0.00,,,0.00,Wunderground v.1.15,2013-03-21 06:40:00,
2013-03-21 02:45:00,14.1,10.4,29.90,West,278,0.0,1.0,85,0.00,,,0.00,Wunderground v.1.15,2013-03-21 06:45:00,
2013-03-21 02:50:00,14.8,11.1,29.90,West,263,1.0,1.0,85,0.00,,,0.00,Wunderground v.1.15,2013-03-21 06:50:00,
2013-03-21 02:55:00,15.1,11.4,29.90,West,263,1.0,1.0,85,0.00,,,0.00,Wunderground v.1.15,2013-03-21 06:55:00,
2013-03-21 03:05:00,15.7,12.0,29.89,West,263,0.0,2.0,85,0.00,,,0.00,Wunderground v.1.15,2013-03-21 07:05:00,
2013-03-21 03:15:00,15.1,11.1,29.90,NNW,339,0.0,2.0,84,0.00,,,0.00,Wunderground v.1.15,2013-03-21 07:15:00,
2013-03-21 03:20:00,14.9,11.2,29.90,NNW,339,0.0,2.0,85,0.00,,,0.00,Wunderground v.1.15,2013-03-21 07:20:00,
2013-03-21 03:25:00,14.9,11.2,29.90,NNW,337,0.0,2.0,85,0.00,,,0.00,Wunderground v.1.15,2013-03-21 07:25:00,
2013-03-21 03:30:00,14.9,11.2,29.89,NNW,337,0.0,2.0,85,0.00,,,0.00,Wunderground v.1.15,2013-03-21 07:30:00,
2013-03-21 03:40:00,15.1,11.4,29.89,NNW,337,0.0,2.0,85,0.00,,,0.00,Wunderground v.1.15,2013-03-21 07:40:00,
2013-03-21 03:45:00,15.2,11.5,29.89,NNW,337,0.0,2.0,85,0.00,,,0.00,Wunderground v.1.15,2013-03-21 07:45:00,
2013-03-21 03:50:00,15.1,11.4,29.89,NNW,329,0.0,2.0,85,0.00,,,0.00,Wunderground v.1.15,2013-03-21 07:50:00,
2013-03-21 04:00:00,15.1,11.4,29.89,NNW,329,0.0,2.0,85,0.00,,,0.00,Wunderground v.1.15,2013-03-21 08:00:00,
2013-03-21 04:05:00,15.1,11.4,29.89,NNW,329,0.0,2.0,85,0.00,,,0.00,Wunderground v.1.15,2013-03-21 08:05:00,
2013-03-21 04:15:00,15.1,11.4,29.89,NNW,329,0.0,0.0,85,0.00,,,0.00,Wunderground v.1.15,2013-03-21 08:15:00,
2013-03-21 04:20:00,15.2,11.5,29.89,NNW,329,0.0,0.0,85,0.00,,,0.00,Wunderground v.1.15,2013-03-21 08:20:00,
2013-03-21 04:25:00,15.1,11.4,29.89,NNW,329,0.0,0.0,85,0.00,,,0.00,Wunderground v.1.15,2013-03-21 08:25:00,
2013-03-21 04:35:00,14.9,11.2,29.88,NNW,329,0.0,0.0,85,0.00,,,0.00,Wunderground v.1.15,2013-03-21 08:35:00,
2013-03-21 04:40:00,14.8,11.1,29.88,NNW,329,0.0,0.0,85,0.00,,,0.00,Wunderground v.1.15,2013-03-21 08:40:00,
2013-03-21 04:45:00,14.6,10.9,29.88,NNW,329,0.0,0.0,85,0.00,,,0.00,Wunderground v.1.15,2013-03-21 08:45:00,
2013-03-21 04:50:00,14.4,10.7,29.88,NNW,329,0.0,0.0,85,0.00,,,0.00,Wunderground v.1.15,2013-03-21 08:50:00,
2013-03-21 05:00:00,14.1,10.2,29.88,NNW,329,0.0,0.0,84,0.00,,,0.00,Wunderground v.1.15,2013-03-21 09:00:00,
2013-03-21 05:05:00,14.0,10.1,29.88,NNW,329,0.0,0.0,84,0.00,,,0.00,Wunderground v.1.15,2013-03-21 09:05:00,
2013-03-21 05:15:00,14.0,10.3,29.88,NNW,329,0.0,0.0,85,0.00,,,0.00,Wunderground v.1.15,2013-03-21 09:15:00,
2013-03-21 05:20:00,14.1,10.4,29.88,NNW,329,0.0,0.0,85,0.00,,,0.00,Wunderground v.1.15,2013-03-21 09:20:00,
2013-03-21 05:25:00,14.3,10.6,29.88,NNW,329,0.0,0.0,85,0.00,,,0.00,Wunderground v.1.15,2013-03-21 09:25:00,
2013-03-21 05:35:00,14.9,11.2,29.88,NNW,329,0.0,0.0,85,0.00,,,0.00,Wunderground v.1.15,2013-03-21 09:35:00,
2013-03-21 05:40:00,15.2,11.8,29.88,NNW,329,0.0,0.0,86,0.00,,,0.00,Wunderground v.1.15,2013-03-21 09:40:00,
2013-03-21 05:45:00,15.6,12.2,29.88,NNW,329,0.0,0.0,86,0.00,,,0.00,Wunderground v.1.15,2013-03-21 09:45:00,
2013-03-21 05:55:00,16.4,12.9,29.88,NNW,329,0.0,0.0,86,0.00,,,0.00,Wunderground v.1.15,2013-03-21 09:55:00,
2013-03-21 06:00:00,16.7,13.2,29.88,NNW,329,0.0,0.0,86,0.00,,,0.00,Wunderground v.1.15,2013-03-21 10:00:00,
2013-03-21 06:05:00,17.0,13.5,29.88,NNW,329,0.0,0.0,86,0.00,,,0.00,Wunderground v.1.15,2013-03-21 10:05:00,
2013-03-21 06:15:00,17.2,13.7,29.88,NW,319,0.0,2.0,86,0.00,,,0.00,Wunderground v.1.15,2013-03-21 10:15:00,
2013-03-21 06:20:00,17.7,14.2,29.88,NW,318,1.0,1.0,86,0.00,,,0.00,Wunderground v.1.15,2013-03-21 10:20:00,
2013-03-21 06:25:00,18.0,14.5,29.88,West,278,1.0,3.0,86,0.00,,,0.00,Wunderground v.1.15,2013-03-21 10:25:00,
2013-03-21 06:35:00,18.6,15.1,29.89,West,278,1.0,1.0,86,0.00,,,0.00,Wunderground v.1.15,2013-03-21 10:35:00,
2013-03-21 06:40:00,18.8,15.3,29.89,West,271,1.0,2.0,86,0.00,,,0.00,Wunderground v.1.15,2013-03-21 10:40:00,
2013-03-21 06:45:00,19.1,15.6,29.88,West,271,1.0,2.0,86,0.00,,,0.00,Wunderground v.1.15,2013-03-21 10:45:00,
2013-03-21 06:55:00,19.7,16.2,29.88,West,280,1.0,1.0,86,0.00,,,0.00,Wunderground v.1.15,2013-03-21 10:55:00,
2013-03-21 07:00:00,20.0,16.5,29.88,WNW,301,1.0,1.0,86,0.00,,,0.00,Wunderground v.1.15,2013-03-21 11:00:00,
2013-03-21 07:05:00,20.3,16.8,29.88,WNW,302,0.0,3.0,86,0.00,,,0.00,Wunderground v.1.15,2013-03-21 11:05:00,
2013-03-21 07:15:00,20.6,17.1,29.89,NW,322,1.0,3.0,86,0.00,,,0.00,Wunderground v.1.15,2013-03-21 11:15:00,
2013-03-21 07:20:00,20.8,17.0,29.89,NW,305,1.0,1.0,85,0.00,,,0.00,Wunderground v.1.15,2013-03-21 11:20:00,
2013-03-21 07:30:00,21.1,17.3,29.88,WNW,299,1.0,3.0,85,0.00,,,0.00,Wunderground v.1.15,2013-03-21 11:30:00,
2013-03-21 07:35:00,21.3,17.5,29.88,WNW,302,1.0,3.0,85,0.00,,,0.00,Wunderground v.1.15,2013-03-21 11:35:00,
2013-03-21 07:40:00,21.4,17.6,29.88,West,274,1.0,3.0,85,0.00,,,0.00,Wunderground v.1.15,2013-03-21 11:40:00,
2013-03-21 07:50:00,21.6,17.8,29.88,West,281,1.0,3.0,85,0.00,,,0.00,Wunderground v.1.15,2013-03-21 11:50:00,
2013-03-21 07:55:00,21.8,18.0,29.88,NW,306,1.0,3.0,85,0.00,,,0.00,Wunderground v.1.15,2013-03-21 11:55:00,
2013-03-21 08:05:00,22.1,18.3,29.88,NW,306,1.0,5.0,85,0.00,,,0.00,Wunderground v.1.15,2013-03-21 12:05:00,
2013-03-21 08:15:00,22.2,18.1,29.88,WNW,291,2.0,5.0,84,0.00,,,0.00,Wunderground v.1.15,2013-03-21 12:15:00,
2013-03-21 08:20:00,22.4,18.3,29.88,NW,318,2.0,2.0,84,0.00,,,0.00,Wunderground v.1.15,2013-03-21 12:20:00,
2013-03-21 08:30:00,22.7,18.3,29.88,NNW,329,1.0,5.0,83,0.00,,,0.00,Wunderground v.1.15,2013-03-21 12:30:00,
2013-03-21 08:35:00,22.7,18.3,29.88,WNW,298,1.0,5.0,83,0.00,,,0.00,Wunderground v.1.15,2013-03-21 12:35:00,
2013-03-21 08:40:00,22.9,18.5,29.88,NW,311,1.0,5.0,83,0.00,,,0.00,Wunderground v.1.15,2013-03-21 12:40:00,
2013-03-21 08:50:00,23.2,18.5,29.88,NW,313,1.0,1.0,82,0.00,,,0.00,Wunderground v.1.15,2013-03-21 12:50:00,
2013-03-21 08:55:00,23.3,18.6,29.88,WNW,291,1.0,5.0,82,0.00,,,0.00,Wunderground v.1.15,2013-03-21 12:55:00,
2013-03-21 09:00:00,23.5,18.8,29.89,NNW,340,1.0,1.0,82,0.00,,,0.00,Wunderground v.1.15,2013-03-21 13:00:00,
2013-03-21 09:05:00,23.6,18.6,29.89,NNW,330,1.0,2.0,81,0.00,,,0.00,Wunderground v.1.15,2013-03-21 13:05:00,
2013-03-21 09:15:00,23.9,18.6,29.89,NNW,330,1.0,3.0,80,0.00,,,0.00,Wunderground v.1.15,2013-03-21 13:15:00,
2013-03-21 09:20:00,24.1,18.8,29.89,North,6,1.0,5.0,80,0.00,,,0.00,Wunderground v.1.15,2013-03-21 13:20:00,
2013-03-21 09:30:00,24.4,18.8,29.89,NNW,340,2.0,5.0,79,0.00,,,0.00,Wunderground v.1.15,2013-03-21 13:30:00,
2013-03-21 09:35:00,24.5,18.9,29.89,NW,322,2.0,5.0,79,0.00,,,0.00,Wunderground v.1.15,2013-03-21 13:35:00,
2013-03-21 09:45:00,25.0,19.1,29.89,NW,315,2.0,5.0,78,0.00,,,0.00,Wunderground v.1.15,2013-03-21 13:45:00,
2013-03-21 09:50:00,25.3,19.1,29.89,West,271,2.0,5.0,77,0.00,,,0.00,Wunderground v.1.15,2013-03-21 13:50:00,
2013-03-21 09:55:00,25.4,18.9,29.89,NNW,328,3.0,6.0,76,0.00,,,0.00,Wunderground v.1.15,2013-03-21 13:55:00,
2013-03-21 10:00:00,25.7,19.2,29.89,West,281,3.0,3.0,76,0.00,,,0.00,Wunderground v.1.15,2013-03-21 14:00:00,
2013-03-21 10:05:00,26.1,19.3,29.89,NW,319,2.0,10.0,75,0.00,,,0.00,Wunderground v.1.15,2013-03-21 14:05:00,
2013-03-21 10:15:00,26.7,19.2,29.89,NW,319,4.0,10.0,73,0.00,,,0.00,Wunderground v.1.15,2013-03-21 14:15:00,
2013-03-21 10:20:00,26.7,18.9,29.89,NW,305,5.0,10.0,72,0.00,,,0.00,Wunderground v.1.15,2013-03-21 14:20:00,
2013-03-21 10:25:00,27.0,19.2,29.89,NNW,346,5.0,10.0,72,0.00,,,0.00,Wunderground v.1.15,2013-03-21 14:25:00,
2013-03-21 10:30:00,27.2,19.0,29.89,WNW,282,4.0,10.0,71,0.00,,,0.00,Wunderground v.1.15,2013-03-21 14:30:00,
2013-03-21 10:35:00,27.5,19.3,29.89,West,272,4.0,10.0,71,0.00,,,0.00,Wunderground v.1.15,2013-03-21 14:35:00,
2013-03-21 10:45:00,27.6,19.1,29.89,North,7,4.0,10.0,70,0.00,,,0.00,Wunderground v.1.15,2013-03-21 14:45:00,
2013-03-21 10:50:00,27.6,18.8,29.89,WNW,292,3.0,3.0,69,0.00,,,0.00,Wunderground v.1.15,2013-03-21 14:50:00,
2013-03-21 10:55:00,27.8,18.6,29.89,WNW,298,3.0,10.0,68,0.00,,,0.00,Wunderground v.1.15,2013-03-21 14:55:00,
2013-03-21 11:00:00,27.9,18.7,29.89,NNW,330,3.0,3.0,68,0.00,,,0.00,Wunderground v.1.15,2013-03-21 15:00:00,
2013-03-21 11:05:00,27.9,18.4,29.89,North,354,4.0,7.0,67,0.00,,,0.00,Wunderground v.1.15,2013-03-21 15:05:00,
2013-03-21 11:15:00,28.1,18.5,29.90,NW,308,5.0,7.0,67,0.00,,,0.00,Wunderground v.1.15,2013-03-21 15:15:00,
2013-03-21 11:20:00,28.2,18.6,29.90,NW,315,5.0,5.0,67,0.00,,,0.00,Wunderground v.1.15,2013-03-21 15:20:00,
2013-03-21 11:25:00,28.2,18.3,29.90,North,352,5.0,8.0,66,0.00,,,0.00,Wunderground v.1.15,2013-03-21 15:25:00,
2013-03-21 11:30:00,28.4,18.8,29.90,NW,323,4.0,4.0,67,0.00,,,0.00,Wunderground v.1.15,2013-03-21 15:30:00,
2013-03-21 11:40:00,28.7,18.4,29.90,NW,325,4.0,4.0,65,0.00,,,0.00,Wunderground v.1.15,2013-03-21 15:40:00,
2013-03-21 11:45:00,28.8,18.5,29.90,NNW,343,4.0,8.0,65,0.00,,,0.00,Wunderground v.1.15,2013-03-21 15:45:00,
2013-03-21 11:50:00,29.0,19.1,29.90,WNW,288,3.0,3.0,66,0.00,,,0.00,Wunderground v.1.15,2013-03-21 15:50:00,
2013-03-21 11:55:00,29.0,18.7,29.90,NW,316,3.0,8.0,65,0.00,,,0.00,Wunderground v.1.15,2013-03-21 15:55:00,
2013-03-21 12:05:00,29.0,19.1,29.90,WNW,301,5.0,13.0,66,0.00,,,0.00,Wunderground v.1.15,2013-03-21 16:05:00,
2013-03-21 12:15:00,29.0,19.4,29.91,West,280,4.0,13.0,67,0.00,,,0.00,Wunderground v.1.15,2013-03-21 16:15:00,
2013-03-21 12:20:00,29.0,19.4,29.91,WSW,246,4.0,13.0,67,0.00,,,0.00,Wunderground v.1.15,2013-03-21 16:20:00,
2013-03-21 12:25:00,29.1,19.8,29.91,NW,325,5.0,13.0,68,0.00,,,0.00,Wunderground v.1.15,2013-03-21 16:25:00,
2013-03-21 12:30:00,28.8,19.9,29.90,WSW,257,5.0,13.0,69,0.00,,,0.00,Wunderground v.1.15,2013-03-21 16:30:00,
2013-03-21 12:40:00,28.8,20.6,29.90,West,264,5.0,13.0,71,0.00,,,0.00,Wunderground v.1.15,2013-03-21 16:40:00,
2013-03-21 12:45:00,28.7,20.8,29.90,WNW,285,6.0,13.0,72,0.00,,,0.00,Wunderground v.1.15,2013-03-21 16:45:00,
2013-03-21 12:50:00,29.0,21.1,29.90,WNW,285,6.0,13.0,72,0.00,,,0.00,Wunderground v.1.15,2013-03-21 16:50:00,
2013-03-21 12:55:00,29.1,20.9,29.90,West,280,5.0,13.0,71,0.00,,,0.00,Wunderground v.1.15,2013-03-21 16:55:00,
2013-03-21 13:05:00,29.0,20.8,29.91,NW,318,6.0,7.0,71,0.00,,,0.00,Wunderground v.1.15,2013-03-21 17:05:00,
2013-03-21 13:15:00,29.3,21.1,29.91,WSW,248,5.0,13.0,71,0.00,,,0.00,Wunderground v.1.15,2013-03-21 17:15:00,
2013-03-21 13:20:00,29.4,20.8,29.91,West,275,4.0,13.0,70,0.00,,,0.00,Wunderground v.1.15,2013-03-21 17:20:00,
2013-03-21 13:30:00,29.4,21.2,29.91,West,271,5.0,5.0,71,0.00,,,0.01,Wunderground v.1.15,2013-03-21 17:30:00,
2013-03-21 13:35:00,29.7,21.4,29.91,NW,323,4.0,13.0,71,0.00,,,0.01,Wunderground v.1.15,2013-03-21 17:35:00,
2013-03-21 13:40:00,29.8,21.2,29.91,WSW,257,4.0,13.0,70,0.00,,,0.01,Wunderground v.1.15,2013-03-21 17:40:00,
2013-03-21 13:50:00,29.8,21.5,29.91,WNW,282,7.0,7.0,71,0.00,,,0.01,Wunderground v.1.15,2013-03-21 17:50:00,
2013-03-21 13:55:00,30.0,21.4,29.91,West,278,5.0,13.0,70,0.00,,,0.01,Wunderground v.1.15,2013-03-21 17:55:00,
2013-03-21 14:05:00,29.1,21.5,29.91,NW,326,7.0,17.0,73,0.00,,,0.01,Wunderground v.1.15,2013-03-21 18:05:00,
2013-03-21 14:15:00,29.3,21.7,29.91,WNW,299,5.0,17.0,73,0.00,,,0.01,Wunderground v.1.15,2013-03-21 18:15:00,
2013-03-21 14:20:00,29.3,21.4,29.91,West,281,6.0,17.0,72,0.00,,,0.01,Wunderground v.1.15,2013-03-21 18:20:00,
2013-03-21 14:25:00,29.4,21.2,29.91,North,0,6.0,17.0,71,0.00,,,0.01,Wunderground v.1.15,2013-03-21 18:25:00,
2013-03-21 14:30:00,29.7,21.1,29.91,West,270,5.0,17.0,70,0.00,,,0.01,Wunderground v.1.15,2013-03-21 18:30:00,
2013-03-21 14:40:00,29.5,20.6,29.91,WNW,294,6.0,6.0,69,0.00,,,0.01,Wunderground v.1.15,2013-03-21 18:40:00,
2013-03-21 14:45:00,29.5,20.9,29.91,NNW,330,6.0,17.0,70,0.00,,,0.01,Wunderground v.1.15,2013-03-21 18:45:00,
2013-03-21 14:50:00,29.8,20.9,29.91,WNW,301,5.0,17.0,69,0.00,,,0.01,Wunderground v.1.15,2013-03-21 18:50:00,
2013-03-21 14:55:00,29.5,20.9,29.91,NNW,328,4.0,17.0,70,0.00,,,0.01,Wunderground v.1.15,2013-03-21 18:55:00,
2013-03-21 15:05:00,29.5,20.2,29.91,NW,313,6.0,9.0,68,0.00,,,0.01,Wunderground v.1.15,2013-03-21 19:05:00,
2013-03-21 15:15:00,29.4,19.4,29.90,WSW,257,5.0,13.0,66,0.00,,,0.01,Wunderground v.1.15,2013-03-21 19:15:00,
2013-03-21 15:20:00,29.3,19.3,29.90,NNW,340,5.0,13.0,66,0.00,,,0.01,Wunderground v.1.15,2013-03-21 19:20:00,
2013-03-21 15:25:00,29.4,19.8,29.90,West,268,5.0,13.0,67,0.00,,,0.01,Wunderground v.1.15,2013-03-21 19:25:00,
2013-03-21 15:30:00,29.3,19.3,29.90,NW,308,5.0,13.0,66,0.00,,,0.01,Wunderground v.1.15,2013-03-21 19:30:00,
2013-03-21 15:40:00,29.3,19.3,29.90,WNW,288,6.0,6.0,66,0.00,,,0.01,Wunderground v.1.15,2013-03-21 19:40:00,
2013-03-21 15:45:00,29.4,19.4,29.90,WNW,282,5.0,13.0,66,0.00,,,0.01,Wunderground v.1.15,2013-03-21 19:45:00,
2013-03-21 15:55:00,29.3,19.7,29.90,West,270,6.0,13.0,67,0.00,,,0.01,Wunderground v.1.15,2013-03-21 19:55:00,
2013-03-21 16:00:00,29.3,20.0,29.90,West,278,6.0,6.0,68,0.00,,,0.01,Wunderground v.1.15,2013-03-21 20:00:00,
2013-03-21 16:05:00,29.3,19.3,29.90,WNW,287,6.0,9.0,66,0.00,,,0.01,Wunderground v.1.15,2013-03-21 20:05:00,
2013-03-21 16:15:00,29.7,18.6,29.90,WNW,284,4.0,14.0,63,0.00,,,0.01,Wunderground v.1.15,2013-03-21 20:15:00,
2013-03-21 16:20:00,29.5,18.8,29.90,WNW,291,4.0,4.0,64,0.00,,,0.01,Wunderground v.1.15,2013-03-21 20:20:00,
2013-03-21 16:30:00,29.4,18.0,29.91,WNW,287,5.0,14.0,62,0.00,,,0.01,Wunderground v.1.15,2013-03-21 20:30:00,
2013-03-21 16:35:00,29.5,18.1,29.91,West,280,5.0,14.0,62,0.00,,,0.01,Wunderground v.1.15,2013-03-21 20:35:00,
2013-03-21 16:40:00,29.5,18.4,29.91,NW,316,5.0,14.0,63,0.00,,,0.01,Wunderground v.1.15,2013-03-21 20:40:00,
2013-03-21 16:45:00,29.5,18.4,29.91,WNW,298,5.0,14.0,63,0.00,,,0.01,Wunderground v.1.15,2013-03-21 20:45:00,
2013-03-21 16:55:00,29.3,18.3,29.91,WNW,284,6.0,6.0,63,0.00,,,0.01,Wunderground v.1.15,2013-03-21 20:55:00,
2013-03-21 17:00:00,29.1,18.4,29.92,NW,309,6.0,14.0,64,0.00,,,0.01,Wunderground v.1.15,2013-03-21 21:00:00,
2013-03-21 17:05:00,28.8,18.5,29.92,WSW,247,6.0,17.0,65,0.00,,,0.01,Wunderground v.1.15,2013-03-21 21:05:00,
2013-03-21 17:15:00,28.7,18.8,29.92,WNW,301,4.0,17.0,66,0.00,,,0.01,Wunderground v.1.15,2013-03-21 21:15:00,
2013-03-21 17:20:00,28.7,18.8,29.92,North,352,4.0,17.0,66,0.00,,,0.01,Wunderground v.1.15,2013-03-21 21:20:00,
2013-03-21 17:30:00,28.5,17.9,29.92,NNW,330,5.0,17.0,64,0.00,,,0.01,Wunderground v.1.15,2013-03-21 21:30:00,
2013-03-21 17:35:00,28.4,18.1,29.92,NW,306,5.0,17.0,65,0.00,,,0.01,Wunderground v.1.15,2013-03-21 21:35:00,
2013-03-21 17:40:00,28.2,17.9,29.92,NW,304,6.0,6.0,65,0.00,,,0.01,Wunderground v.1.15,2013-03-21 21:40:00,
2013-03-21 17:50:00,28.4,18.1,29.92,NW,312,5.0,17.0,65,0.00,,,0.01,Wunderground v.1.15,2013-03-21 21:50:00,
2013-03-21 17:55:00,28.2,17.9,29.92,West,267,6.0,17.0,65,0.00,,,0.01,Wunderground v.1.15,2013-03-21 21:55:00,
2013-03-21 18:00:00,27.9,18.0,29.92,NW,308,6.0,6.0,66,0.00,,,0.01,Wunderground v.1.15,2013-03-21 22:00:00,
2013-03-21 18:05:00,27.6,18.1,29.92,NNW,329,5.0,13.0,67,0.00,,,0.01,Wunderground v.1.15,2013-03-21 22:05:00,
2013-03-21 18:15:00,27.5,18.7,29.92,WSW,250,4.0,13.0,69,0.00,,,0.01,Wunderground v.1.15,2013-03-21 22:15:00,
2013-03-21 18:20:00,27.2,18.7,29.92,NW,319,5.0,5.0,70,0.00,,,0.01,Wunderground v.1.15,2013-03-21 22:20:00,
2013-03-21 18:30:00,27.0,18.8,29.93,NNW,346,4.0,4.0,71,0.00,,,0.01,Wunderground v.1.15,2013-03-21 22:30:00,
2013-03-21 18:35:00,26.7,18.6,29.93,NNW,332,4.0,13.0,71,0.00,,,0.01,Wunderground v.1.15,2013-03-21 22:35:00,
2013-03-21 18:40:00,26.7,18.6,29.93,NW,311,6.0,6.0,71,0.00,,,0.01,Wunderground v.1.15,2013-03-21 22:40:00,
2013-03-21 18:50:00,26.7,18.6,29.93,NNW,336,4.0,13.0,71,0.00,,,0.01,Wunderground v.1.15,2013-03-21 22:50:00,
2013-03-21 18:55:00,26.7,18.6,29.93,NNW,328,4.0,13.0,71,0.00,,,0.01,Wunderground v.1.15,2013-03-21 22:55:00,
2013-03-21 19:00:00,26.6,18.1,29.93,NW,326,4.0,13.0,70,0.00,,,0.01,Wunderground v.1.15,2013-03-21 23:00:00,
2013-03-21 19:05:00,26.6,18.1,29.93,North,359,3.0,13.0,70,0.00,,,0.01,Wunderground v.1.15,2013-03-21 23:05:00,
2013-03-21 19:15:00,26.6,17.8,29.93,NW,325,4.0,10.0,69,0.00,,,0.01,Wunderground v.1.15,2013-03-21 23:15:00,
2013-03-21 19:20:00,26.6,17.8,29.93,NW,316,3.0,3.0,69,0.00,,,0.01,Wunderground v.1.15,2013-03-21 23:20:00,
2013-03-21 19:30:00,26.6,17.8,29.93,NW,325,3.0,3.0,69,0.00,,,0.01,Wunderground v.1.15,2013-03-21 23:30:00,
2013-03-21 19:35:00,26.6,17.8,29.93,NNW,336,3.0,10.0,69,0.00,,,0.01,Wunderground v.1.15,2013-03-21 23:35:00,
2013-03-21 19:45:00,26.4,17.6,29.93,West,272,4.0,10.0,69,0.00,,,0.01,Wunderground v.1.15,2013-03-21 23:45:00,
2013-03-21 19:50:00,26.4,17.3,29.93,WNW,292,4.0,10.0,68,0.00,,,0.01,Wunderground v.1.15,2013-03-21 23:50:00,
2013-03-21 19:55:00,26.4,17.3,29.93,NNW,342,4.0,10.0,68,0.00,,,0.01,Wunderground v.1.15,2013-03-21 23:55:00,
2013-03-21 20:00:00,26.4,17.3,29.93,NNW,333,4.0,4.0,68,0.00,,,0.01,Wunderground v.1.15,2013-03-22 00:00:00,
2013-03-21 20:05:00,26.3,17.2,29.93,NW,313,3.0,10.0,68,0.00,,,0.01,Wunderground v.1.15,2013-03-22 00:05:00,
2013-03-21 20:15:00,26.3,16.8,29.93,NW,325,3.0,3.0,67,0.00,,,0.01,Wunderground v.1.15,2013-03-22 00:15:00,
2013-03-21 20:25:00,26.3,16.8,29.93,NW,316,3.0,10.0,67,0.00,,,0.01,Wunderground v.1.15,2013-03-22 00:25:00,
2013-03-21 20:30:00,26.1,16.3,29.93,WNW,302,2.0,10.0,66,0.00,,,0.01,Wunderground v.1.15,2013-03-22 00:30:00,
2013-03-21 20:35:00,26.1,16.3,29.93,West,260,2.0,10.0,66,0.00,,,0.01,Wunderground v.1.15,2013-03-22 00:35:00,
2013-03-21 20:45:00,26.0,16.2,29.93,NW,319,2.0,10.0,66,0.00,,,0.01,Wunderground v.1.15,2013-03-22 00:45:00,
2013-03-21 20:50:00,26.0,16.5,29.93,NW,319,1.0,10.0,67,0.00,,,0.01,Wunderground v.1.15,2013-03-22 00:50:00,
2013-03-21 20:55:00,26.0,16.5,29.93,NW,305,2.0,10.0,67,0.00,,,0.01,Wunderground v.1.15,2013-03-22 00:55:00,
2013-03-21 21:00:00,26.0,16.5,29.94,NW,320,1.0,1.0,67,0.00,,,0.01,Wunderground v.1.15,2013-03-22 01:00:00,
2013-03-21 21:05:00,26.0,16.5,29.94,NW,313,1.0,2.0,67,0.00,,,0.01,Wunderground v.1.15,2013-03-22 01:05:00,
2013-03-21 21:15:00,26.0,16.2,29.94,NNW,343,2.0,6.0,66,0.00,,,0.01,Wunderground v.1.15,2013-03-22 01:15:00,
2013-03-21 21:25:00,26.0,15.8,29.94,NNW,328,2.0,3.0,65,0.00,,,0.01,Wunderground v.1.15,2013-03-22 01:25:00,
2013-03-21 21:30:00,26.0,15.8,29.94,NW,326,2.0,6.0,65,0.00,,,0.01,Wunderground v.1.15,2013-03-22 01:30:00,
2013-03-21 21:40:00,26.0,15.8,29.94,NNW,336,2.0,6.0,65,0.00,,,0.01,Wunderground v.1.15,2013-03-22 01:40:00,
2013-03-21 21:45:00,26.0,16.2,29.94,NW,319,2.0,6.0,66,0.00,,,0.01,Wunderground v.1.15,2013-03-22 01:45:00,
2013-03-21 21:50:00,26.0,16.5,29.94,NNW,343,3.0,3.0,67,0.00,,,0.01,Wunderground v.1.15,2013-03-22 01:50:00,
2013-03-21 21:55:00,25.8,16.3,29.94,NNW,330,4.0,4.0,67,0.00,,,0.01,Wunderground v.1.15,2013-03-22 01:55:00,
2013-03-21 22:05:00,25.7,16.9,29.94,NNW,332,4.0,10.0,69,0.00,,,0.01,Wunderground v.1.15,2013-03-22 02:05:00,
2013-03-21 22:15:00,25.7,17.3,29.94,NNW,340,3.0,10.0,70,0.00,,,0.01,Wunderground v.1.15,2013-03-22 02:15:00,
2013-03-21 22:20:00,25.7,17.3,29.94,WNW,288,3.0,10.0,70,0.00,,,0.01,Wunderground v.1.15,2013-03-22 02:20:00,
2013-03-21 22:25:00,25.7,17.3,29.94,NNW,330,3.0,10.0,70,0.00,,,0.01,Wunderground v.1.15,2013-03-22 02:25:00,
2013-03-21 22:30:00,25.7,16.9,29.95,NNW,347,4.0,10.0,69,0.00,,,0.01,Wunderground v.1.15,2013-03-22 02:30:00,
2013-03-21 22:40:00,25.7,16.9,29.95,NW,323,3.0,10.0,69,0.00,,,0.01,Wunderground v.1.15,2013-03-22 02:40:00,
2013-03-21 22:45:00,25.8,16.7,29.95,North,353,3.0,10.0,68,0.00,,,0.01,Wunderground v.1.15,2013-03-22 02:45:00,
2013-03-21 22:50:00,25.8,16.3,29.95,NW,305,4.0,4.0,67,0.00,,,0.01,Wunderground v.1.15,2013-03-22 02:50:00,
2013-03-21 22:55:00,25.8,16.0,29.95,NW,326,3.0,10.0,66,0.00,,,0.01,Wunderground v.1.15,2013-03-22 02:55:00,
2013-03-21 23:05:00,26.0,15.8,29.95,North,353,2.0,4.0,65,0.00,,,0.01,Wunderground v.1.15,2013-03-22 03:05:00,
2013-03-21 23:15:00,26.0,15.5,29.95,NNW,333,3.0,11.0,64,0.00,,,0.01,Wunderground v.1.15,2013-03-22 03:15:00,
2013-03-21 23:20:00,26.0,15.1,29.95,North,357,5.0,11.0,63,0.00,,,0.01,Wunderground v.1.15,2013-03-22 03:20:00,
2013-03-21 23:25:00,26.0,15.1,29.95,NNW,346,5.0,11.0,63,0.00,,,0.01,Wunderground v.1.15,2013-03-22 03:25:00,
2013-03-21 23:30:00,26.1,15.2,29.95,NW,323,4.0,11.0,63,0.00,,,0.01,Wunderground v.1.15,2013-03-22 03:30:00,
2013-03-21 23:40:00,26.1,15.2,29.95,NNW,343,3.0,11.0,63,0.00,,,0.01,Wunderground v.1.15,2013-03-22 03:40:00,
2013-03-21 23:45:00,26.1,15.2,29.95,NNE,17,3.0,11.0,63,0.00,,,0.01,Wunderground v.1.15,2013-03-22 03:45:00,
2013-03-21 23:50:00,26.3,14.3,29.95,NNW,328,4.0,11.0,60,0.00,,,0.01,Wunderground v.1.15,2013-03-22 03:50:00,